User: anonymous   Login
Location: Unspecified
(0.0000°N, 0.0000°E)
Time: 18:36:06
(UTC+00:00)
Language:

CZ-3B DEB - Orbit

View from above orbital plane
View from above orbital plane
View from above satellite
View from above satellite

Ground track
Ground track

The orbit data is extracted from the following two-line orbital elements,

1 40186U 11077K   20195.48841062 -.00000050 +00000-0 +00000-0 0  9991
2 40186 025.4066 269.2935 7334305 059.1047 005.3339 01.88710533058249
Epoch (UTC): 13 July 2020 11:43:18
Eccentricity: 0.7334305
inclination: 25.4066°
perigee height: 995 km
apogee height: 41570 km
right ascension of ascending node: 269.2935°
argument of perigee: 59.1047°
revolutions per day: 1.88710533
mean anomaly at epoch: 5.3339°
orbit number at epoch: 5824

The dashed part of the orbit path shows where the satellite is in the earth's shadow,  

DLR